When you browse on this site, cookies collect data to enhance your experience and personalize the content and advertising you see.
Visit our Privacy Policy to learn more. By continuing to use the site, you agree to this use of cookies and data.
  • In Österreich
  • Länderverzeichnis
  • Für 7 Tage
  • Wassertemperatur
  • Wetterkarte
  • News
  • Widgets
  • user-avatar
    Anmelden

    Stündliche Wetter Surat Thani

    Heute, 6 Juni, Samstag

    Zeit Temperatur Niederschläge Wind Luftdruck Luftfeuchtigkeit
    00:00 +27°C° 0 mm 1 m/S 751 mmHg 91%
    01:00 +27°C° 0 mm 1 m/S 750 mmHg 92%
    02:00 +26°C° 0 mm 1 m/S 750 mmHg 92%
    03:00 +26°C° 0 mm 1 m/S 749 mmHg 93%
    04:00 +26°C° 0 mm 1 m/S 749 mmHg 94%
    05:00 +26°C° 0 mm 1 m/S 749 mmHg 93%
    06:00 +26°C° 0 mm 1 m/S 750 mmHg 92%
    07:00 +27°C° 0 mm 1 m/S 750 mmHg 92%
    08:00 +28°C° 0 mm 1 m/S 750 mmHg 85%
    09:00 +30°C° 0 mm 2 m/S 750 mmHg 78%
    10:00 +31°C° 0 mm 2 m/S 751 mmHg 72%
    11:00 +33°C° 0.1 mm 3 m/S 751 mmHg 67%
    12:00 +34°C° 0.1 mm 3 m/S 750 mmHg 62%
    13:00 +35°C° 0.1 mm 4 m/S 750 mmHg 58%
    14:00 +35°C° 0.4 mm 4 m/S 750 mmHg 60%
    15:00 +34°C° 0.4 mm 4 m/S 749 mmHg 63%
    16:00 +34°C° 0.4 mm 4 m/S 748 mmHg 65%
    17:00 +31°C° 0.3 mm 3 m/S 749 mmHg 71%
    18:00 +30°C° 0.3 mm 2 m/S 749 mmHg 76%
    19:00 +28°C° 0.3 mm 1 m/S 750 mmHg 82%
    20:00 +28°C° 0 mm 1 m/S 750 mmHg 83%
    21:00 +28°C° 0 mm 1 m/S 750 mmHg 85%
    22:00 +27°C° 0 mm 1 m/S 751 mmHg 87%
    23:00 +27°C° 0 mm 1 m/S 751 mmHg 88%

    Morgen, 7 Juni, Sonntag

    Zeit Temperatur Niederschläge Wind Luftdruck Luftfeuchtigkeit
    00:00 +27°C° 0 mm 1 m/S 750 mmHg 89%
    01:00 +27°C° 0 mm 1 m/S 750 mmHg 90%
    02:00 +27°C° 0 mm 1 m/S 750 mmHg 91%
    03:00 +26°C° 0 mm 1 m/S 749 mmHg 91%
    04:00 +26°C° 0 mm 1 m/S 749 mmHg 92%
    05:00 +27°C° 0 mm 1 m/S 749 mmHg 91%
    06:00 +27°C° 0 mm 1 m/S 749 mmHg 90%
    07:00 +27°C° 0 mm 1 m/S 749 mmHg 90%
    08:00 +29°C° 0 mm 1 m/S 750 mmHg 83%
    09:00 +30°C° 0 mm 2 m/S 750 mmHg 76%
    10:00 +32°C° 0 mm 2 m/S 751 mmHg 68%
    11:00 +32°C° 2 mm 2 m/S 750 mmHg 71%
    12:00 +33°C° 2 mm 3 m/S 750 mmHg 73%
    13:00 +31°C° 2 mm 3 m/S 750 mmHg 75%
    14:00 +31°C° 1.6 mm 3 m/S 749 mmHg 78%
    15:00 +30°C° 1.6 mm 3 m/S 748 mmHg 80%
    16:00 +29°C° 1.6 mm 2 m/S 748 mmHg 83%
    17:00 +29°C° 0.1 mm 2 m/S 748 mmHg 84%
    18:00 +28°C° 0.1 mm 1 m/S 749 mmHg 85%
    19:00 +28°C° 0.1 mm 1 m/S 749 mmHg 86%
    20:00 +28°C° 0 mm 1 m/S 749 mmHg 87%
    21:00 +27°C° 0 mm 1 m/S 750 mmHg 88%
    22:00 +27°C° 0 mm 1 m/S 750 mmHg 89%
    23:00 +27°C° 0 mm 1 m/S 750 mmHg 90%

    übermorgen, 8 Juni, Montag

    Zeit Temperatur Niederschläge Wind Luftdruck Luftfeuchtigkeit
    00:00 +26°C° 0 mm 1 m/S 750 mmHg 92%
    01:00 +26°C° 0 mm 1 m/S 749 mmHg 93%
    02:00 +26°C° 0 mm 1 m/S 749 mmHg 93%
    03:00 +26°C° 0 mm 1 m/S 749 mmHg 94%
    04:00 +25°C° 0 mm 1 m/S 749 mmHg 94%
    05:00 +26°C° 0 mm 1 m/S 749 mmHg 93%
    06:00 +26°C° 0 mm 1 m/S 749 mmHg 92%
    07:00 +26°C° 0 mm 1 m/S 750 mmHg 92%
    08:00 +28°C° 0 mm 1 m/S 750 mmHg 84%
    09:00 +30°C° 0 mm 2 m/S 750 mmHg 77%
    10:00 +32°C° 0 mm 2 m/S 750 mmHg 70%
    11:00 +34°C° 0.1 mm 2 m/S 750 mmHg 66%
    12:00 +35°C° 0.1 mm 2 m/S 750 mmHg 62%
    13:00 +35°C° 0.1 mm 2 m/S 749 mmHg 58%
    14:00 +35°C° 1.3 mm 3 m/S 749 mmHg 63%
    15:00 +34°C° 1.3 mm 3 m/S 748 mmHg 67%
    16:00 +33°C° 1.3 mm 3 m/S 748 mmHg 72%
    17:00 +31°C° 0.8 mm 2 m/S 748 mmHg 77%
    18:00 +29°C° 0.8 mm 2 m/S 748 mmHg 81%
    19:00 +28°C° 0.8 mm 1 m/S 749 mmHg 85%
    20:00 +28°C° 0 mm 1 m/S 749 mmHg 86%
    21:00 +27°C° 0 mm 1 m/S 750 mmHg 87%
    22:00 +27°C° 0 mm 1 m/S 750 mmHg 88%
    23:00 +27°C° 0 mm 1 m/S 750 mmHg 89%

    9 Juni, Dienstag

    Zeit Temperatur Niederschläge Wind Luftdruck Luftfeuchtigkeit
    00:00 +27°C° 0 mm 1 m/S 750 mmHg 89%
    01:00 +26°C° 0 mm 1 m/S 749 mmHg 90%
    02:00 +26°C° 0 mm 1 m/S 749 mmHg 91%
    03:00 +26°C° 0 mm 1 m/S 749 mmHg 91%
    04:00 +26°C° 0 mm 1 m/S 748 mmHg 92%
    05:00 +26°C° 0 mm 1 m/S 749 mmHg 91%
    06:00 +26°C° 0 mm 1 m/S 749 mmHg 91%
    07:00 +27°C° 0 mm 1 m/S 749 mmHg 91%
    08:00 +28°C° 0 mm 1 m/S 750 mmHg 84%
    09:00 +30°C° 0 mm 2 m/S 750 mmHg 77%
    10:00 +32°C° 0 mm 2 m/S 750 mmHg 69%
    11:00 +34°C° 0.3 mm 2 m/S 750 mmHg 67%
    12:00 +34°C° 0.3 mm 3 m/S 749 mmHg 65%
    13:00 +35°C° 0.3 mm 3 m/S 749 mmHg 63%
    14:00 +35°C° 1.2 mm 3 m/S 749 mmHg 65%
    15:00 +34°C° 1.2 mm 3 m/S 748 mmHg 68%
    16:00 +33°C° 1.2 mm 3 m/S 748 mmHg 71%
    17:00 +31°C° 0.1 mm 3 m/S 748 mmHg 75%
    18:00 +30°C° 0.1 mm 2 m/S 748 mmHg 79%
    19:00 +29°C° 0.1 mm 1 m/S 748 mmHg 82%
    20:00 +28°C° 0 mm 1 m/S 749 mmHg 84%
    21:00 +28°C° 0 mm 1 m/S 749 mmHg 85%
    22:00 +27°C° 0 mm 1 m/S 750 mmHg 86%
    23:00 +27°C° 0 mm 1 m/S 750 mmHg 87%

    10 Juni, Mittwoch

    Zeit Temperatur Niederschläge Wind Luftdruck Luftfeuchtigkeit
    00:00 +27°C° 0 mm 1 m/S 749 mmHg 88%
    01:00 +27°C° 0 mm 1 m/S 749 mmHg 89%
    02:00 +26°C° 0 mm 1 m/S 749 mmHg 89%
    03:00 +26°C° 0 mm 1 m/S 749 mmHg 90%
    04:00 +26°C° 0 mm 1 m/S 749 mmHg 91%
    05:00 +26°C° 0 mm 1 m/S 749 mmHg 90%
    06:00 +27°C° 0 mm 1 m/S 749 mmHg 89%
    07:00 +27°C° 0 mm 1 m/S 749 mmHg 88%
    08:00 +29°C° 0 mm 1 m/S 750 mmHg 80%
    09:00 +31°C° 0 mm 2 m/S 750 mmHg 72%
    10:00 +32°C° 0 mm 2 m/S 751 mmHg 64%
    11:00 +34°C° 0 mm 2 m/S 750 mmHg 59%
    12:00 +35°C° 0 mm 3 m/S 750 mmHg 55%
    13:00 +36°C° 0 mm 3 m/S 749 mmHg 50%
    14:00 +36°C° 0 mm 3 m/S 749 mmHg 51%
    15:00 +36°C° 0 mm 3 m/S 748 mmHg 51%
    16:00 +36°C° 0 mm 3 m/S 748 mmHg 51%
    17:00 +34°C° 0 mm 3 m/S 748 mmHg 58%
    18:00 +31°C° 0 mm 2 m/S 748 mmHg 64%
    19:00 +29°C° 0 mm 2 m/S 749 mmHg 71%
    20:00 +29°C° 0 mm 1 m/S 749 mmHg 74%
    21:00 +28°C° 0 mm 1 m/S 750 mmHg 76%
    22:00 +28°C° 0 mm 1 m/S 750 mmHg 79%
    23:00 +27°C° 0 mm 1 m/S 750 mmHg 80%

    11 Juni, Donnerstag

    Zeit Temperatur Niederschläge Wind Luftdruck Luftfeuchtigkeit
    00:00 +27°C° 0 mm 1 m/S 750 mmHg 81%
    01:00 +27°C° 0 mm 1 m/S 749 mmHg 83%
    02:00 +27°C° 0 mm 1 m/S 749 mmHg 83%
    03:00 +24°C° 0 mm 0 m/S 749 mmHg 84%
    04:00 +24°C° 0 mm 0 m/S 748 mmHg 84%
    05:00 +24°C° 0 mm 0 m/S 749 mmHg 84%
    06:00 +27°C° 0 mm 1 m/S 749 mmHg 84%
    07:00 +27°C° 0 mm 1 m/S 749 mmHg 85%
    08:00 +29°C° 0 mm 1 m/S 750 mmHg 77%
    09:00 +30°C° 0 mm 1 m/S 750 mmHg 70%
    10:00 +32°C° 0 mm 1 m/S 750 mmHg 62%
    11:00 +34°C° 0 mm 2 m/S 750 mmHg 58%
    12:00 +35°C° 0 mm 2 m/S 749 mmHg 53%
    13:00 +36°C° 0 mm 2 m/S 749 mmHg 48%
    14:00 +36°C° 0 mm 2 m/S 749 mmHg 48%
    15:00 +36°C° 0 mm 2 m/S 748 mmHg 48%
    16:00 +36°C° 0 mm 2 m/S 748 mmHg 48%
    17:00 +34°C° 0 mm 2 m/S 748 mmHg 54%
    18:00 +32°C° 0 mm 2 m/S 748 mmHg 60%
    19:00 +30°C° 0 mm 2 m/S 748 mmHg 66%
    20:00 +29°C° 0 mm 1 m/S 749 mmHg 69%
    21:00 +28°C° 0 mm 1 m/S 750 mmHg 72%
    22:00 +28°C° 0 mm 1 m/S 750 mmHg 75%
    23:00 +28°C° 0 mm 1 m/S 750 mmHg 77%
    Mehr zeigen